Back to catalog

SL-14 DEB

AlivePO
NORAD 45314·DEBRIS·🇷🇺 Russia

Launched Aug 15, 1991 from Plesetsk Cosmodrome

Loading…

Next Passes (next 24 hours)

TLE

FreshSource: Space-Track

Epoch: Sep 13, 2026, 19:29 UTC

1 45314U 91056BC  26256.81232793 -.00000623  00000-0 -18321-2 0  9994
2 45314  82.5323  96.5173 0050179  67.3959 293.2456 13.09566070312884

Track SL-14 DEB in real time with AllMySat

Download on the App Store